Time,TemperatureF,DewpointF,PressureIn,WindDirection,WindDirectionDegrees,WindSpeedMPH,WindSpeedGustMPH,Humidity,HourlyPrecipIn,Conditions,Clouds,dailyrainin,SoftwareType,DateUTC
2013-11-12 00:01:00,17.5,11.2,30.73,NW,316,0.0,1.0,76,0.00,,SKC,0.00,VWS V14.01,2013-11-12 06:01:00,
2013-11-12 00:06:00,17.5,11.2,30.74,NW,316,0.0,2.0,76,0.00,,SKC,0.00,VWS V14.01,2013-11-12 06:06:00,
2013-11-12 00:11:00,17.5,10.9,30.74,NW,316,0.0,2.0,75,0.00,,SKC,0.00,VWS V14.01,2013-11-12 06:11:00,
2013-11-12 00:16:00,17.5,10.9,30.75,NW,316,0.0,4.0,75,0.00,,SKC,0.00,VWS V14.01,2013-11-12 06:16:00,
2013-11-12 00:21:00,17.4,10.9,30.75,NW,317,0.0,5.0,75,0.00,,SKC,0.00,VWS V14.01,2013-11-12 06:21:00,
2013-11-12 00:26:00,17.4,10.9,30.74,NW,317,0.0,5.0,75,0.00,,SKC,0.00,VWS V14.01,2013-11-12 06:26:00,
2013-11-12 00:31:00,17.4,10.9,30.74,NW,317,0.0,0.0,75,0.00,,SKC,0.00,VWS V14.01,2013-11-12 06:31:00,
2013-11-12 00:36:00,17.4,10.9,30.75,NW,317,0.0,0.0,75,0.00,,SKC,0.00,VWS V14.01,2013-11-12 06:36:00,
2013-11-12 00:41:00,17.4,11.1,30.75,NW,317,0.0,0.0,76,0.00,,SKC,0.00,VWS V14.01,2013-11-12 06:41:00,
2013-11-12 00:46:00,17.4,11.1,30.75,NW,317,0.0,0.0,76,0.00,,SKC,0.00,VWS V14.01,2013-11-12 06:46:00,
2013-11-12 00:51:00,17.5,11.2,30.74,NW,317,0.0,0.0,76,0.00,,SKC,0.00,VWS V14.01,2013-11-12 06:51:00,
2013-11-12 00:56:00,17.5,11.2,30.74,NW,317,0.0,0.0,76,0.00,,SKC,0.00,VWS V14.01,2013-11-12 06:56:00,
2013-11-12 01:01:00,17.5,10.9,30.74,NW,317,0.0,0.0,75,0.00,,SKC,0.00,VWS V14.01,2013-11-12 07:01:00,
2013-11-12 01:06:00,17.4,11.1,30.74,NW,317,0.0,0.0,76,0.00,,SKC,0.00,VWS V14.01,2013-11-12 07:06:00,
2013-11-12 01:11:00,17.5,11.2,30.74,NW,317,0.0,0.0,76,0.00,,SKC,0.00,VWS V14.01,2013-11-12 07:11:00,
2013-11-12 01:16:00,17.5,10.9,30.74,NW,317,0.0,0.0,75,0.00,,SKC,0.00,VWS V14.01,2013-11-12 07:16:00,
2013-11-12 01:21:00,17.5,11.5,30.74,SW,221,0.0,3.0,77,0.00,,SKC,0.00,VWS V14.01,2013-11-12 07:21:00,
2013-11-12 01:26:00,17.4,11.1,30.74,WSW,248,4.0,4.0,76,0.00,,SKC,0.00,VWS V14.01,2013-11-12 07:26:00,
2013-11-12 01:31:00,17.2,10.9,30.74,West,270,0.0,4.0,76,0.00,,SKC,0.00,VWS V14.01,2013-11-12 07:31:00,
2013-11-12 01:36:00,17.1,11.1,30.74,WNW,300,0.0,4.0,77,0.00,,SKC,0.00,VWS V14.01,2013-11-12 07:36:00,
2013-11-12 01:41:00,17.0,11.1,30.74,WNW,300,0.0,4.0,77,0.00,,SKC,0.00,VWS V14.01,2013-11-12 07:41:00,
2013-11-12 01:46:00,16.9,11.2,30.74,WNW,300,0.0,4.0,78,0.00,,SKC,0.00,VWS V14.01,2013-11-12 07:46:00,
2013-11-12 01:51:00,16.8,10.9,30.75,WNW,284,0.0,4.0,77,0.00,,SKC,0.00,VWS V14.01,2013-11-12 07:51:00,
2013-11-12 01:56:00,16.7,10.8,30.75,West,262,0.0,4.0,77,0.00,,SKC,0.00,VWS V14.01,2013-11-12 07:56:00,
2013-11-12 02:01:00,16.5,10.6,30.75,WSW,248,3.0,4.0,77,0.00,,SKC,0.00,VWS V14.01,2013-11-12 08:01:00,
2013-11-12 02:06:00,16.4,10.8,30.75,West,269,0.0,5.0,78,0.00,,SKC,0.00,VWS V14.01,2013-11-12 08:06:00,
2013-11-12 02:11:00,16.4,10.8,30.75,West,278,2.0,5.0,78,0.00,,SKC,0.00,VWS V14.01,2013-11-12 08:11:00,
2013-11-12 02:16:00,16.3,10.7,30.75,West,273,1.0,5.0,78,0.00,,SKC,0.00,VWS V14.01,2013-11-12 08:16:00,
2013-11-12 02:21:00,16.3,10.7,30.75,West,273,0.0,5.0,78,0.00,,SKC,0.00,VWS V14.01,2013-11-12 08:21:00,
2013-11-12 02:26:00,16.2,10.8,30.75,West,273,0.0,5.0,79,0.00,,SKC,0.00,VWS V14.01,2013-11-12 08:26:00,
2013-11-12 02:31:00,16.2,10.6,30.75,West,273,0.0,1.0,78,0.00,,SKC,0.00,VWS V14.01,2013-11-12 08:31:00,
2013-11-12 02:36:00,16.1,10.8,30.75,West,273,0.0,1.0,79,0.00,,SKC,0.00,VWS V14.01,2013-11-12 08:36:00,
2013-11-12 02:41:00,16.0,10.6,30.75,NW,304,4.0,4.0,79,0.00,,SKC,0.00,VWS V14.01,2013-11-12 08:41:00,
2013-11-12 02:46:00,16.0,10.4,30.76,WNW,283,0.0,4.0,78,0.00,,SKC,0.00,VWS V14.01,2013-11-12 08:46:00,
2013-11-12 02:51:00,16.0,10.6,30.76,NW,312,0.0,5.0,79,0.00,,SKC,0.00,VWS V14.01,2013-11-12 08:51:00,
2013-11-12 02:56:00,15.9,10.6,30.76,West,270,0.0,5.0,79,0.00,,SKC,0.00,VWS V14.01,2013-11-12 08:56:00,
2013-11-12 03:01:00,15.9,10.6,30.76,West,269,2.0,2.0,79,0.00,,SKC,0.00,VWS V14.01,2013-11-12 09:01:00,
2013-11-12 03:06:00,15.8,10.5,30.76,SSW,199,0.0,5.0,79,0.00,,SKC,0.00,VWS V14.01,2013-11-12 09:06:00,
2013-11-12 03:11:00,15.8,10.5,30.76,SW,228,1.0,5.0,79,0.00,,SKC,0.00,VWS V14.01,2013-11-12 09:11:00,
2013-11-12 03:16:00,15.7,10.1,30.76,SW,228,0.0,5.0,78,0.00,,SKC,0.00,VWS V14.01,2013-11-12 09:16:00,
2013-11-12 03:21:00,15.6,10.0,30.76,SW,232,0.0,5.0,78,0.00,,SKC,0.00,VWS V14.01,2013-11-12 09:21:00,
2013-11-12 03:26:00,15.5,10.2,30.76,SW,232,0.0,5.0,79,0.00,,SKC,0.00,VWS V14.01,2013-11-12 09:26:00,
2013-11-12 03:31:00,15.3,10.0,30.77,SW,232,0.0,0.0,79,0.00,,SKC,0.00,VWS V14.01,2013-11-12 09:31:00,
2013-11-12 03:36:00,15.3,10.0,30.77,SW,232,0.0,0.0,79,0.00,,SKC,0.00,VWS V14.01,2013-11-12 09:36:00,
2013-11-12 03:41:00,15.2,9.9,30.77,SW,232,0.0,0.0,79,0.00,,SKC,0.00,VWS V14.01,2013-11-12 09:41:00,
2013-11-12 03:46:00,15.0,10.0,30.78,SW,232,0.0,2.0,80,0.00,,SKC,0.00,VWS V14.01,2013-11-12 09:46:00,
2013-11-12 03:51:00,14.9,9.9,30.78,SW,232,0.0,2.0,80,0.00,,SKC,0.00,VWS V14.01,2013-11-12 09:51:00,
2013-11-12 03:56:00,14.8,10.0,30.78,SW,232,0.0,2.0,81,0.00,,SKC,0.00,VWS V14.01,2013-11-12 09:56:00,
2013-11-12 04:01:00,14.8,10.0,30.78,SW,232,0.0,1.0,81,0.00,,SKC,0.00,VWS V14.01,2013-11-12 10:01:00,
2013-11-12 04:06:00,14.7,9.9,30.78,SW,234,0.0,1.0,81,0.00,,SKC,0.00,VWS V14.01,2013-11-12 10:06:00,
2013-11-12 04:11:00,14.6,9.6,30.78,SW,234,0.0,1.0,80,0.00,,SKC,0.00,VWS V14.01,2013-11-12 10:11:00,
2013-11-12 04:16:00,14.4,9.4,30.78,SW,234,0.0,1.0,80,0.00,,SKC,0.00,VWS V14.01,2013-11-12 10:16:00,
2013-11-12 04:21:00,14.1,9.4,30.78,SW,234,0.0,2.0,81,0.00,,SKC,0.00,VWS V14.01,2013-11-12 10:21:00,
2013-11-12 04:26:00,14.0,9.3,30.77,SW,234,0.0,2.0,81,0.00,,SKC,0.00,VWS V14.01,2013-11-12 10:26:00,
2013-11-12 04:31:00,13.9,9.2,30.77,SW,234,0.0,0.0,81,0.00,,SKC,0.00,VWS V14.01,2013-11-12 10:31:00,
2013-11-12 04:36:00,13.7,9.0,30.77,SW,234,0.0,1.0,81,0.00,,SKC,0.00,VWS V14.01,2013-11-12 10:36:00,
2013-11-12 04:41:00,13.6,9.1,30.77,SW,234,0.0,1.0,82,0.00,,SKC,0.00,VWS V14.01,2013-11-12 10:41:00,
2013-11-12 04:46:00,13.4,8.9,30.77,SW,234,0.0,1.0,82,0.00,,SKC,0.00,VWS V14.01,2013-11-12 10:46:00,
2013-11-12 04:51:00,13.4,9.2,30.77,SW,234,0.0,1.0,83,0.00,,SKC,0.00,VWS V14.01,2013-11-12 10:51:00,
2013-11-12 04:56:00,13.4,9.2,30.77,SW,234,0.0,1.0,83,0.00,,SKC,0.00,VWS V14.01,2013-11-12 10:56:00,
2013-11-12 05:01:00,13.5,9.3,30.77,SW,234,0.0,3.0,83,0.00,,SKC,0.00,VWS V14.01,2013-11-12 11:01:00,
2013-11-12 05:06:00,13.6,9.4,30.77,SW,234,0.0,3.0,83,0.00,,SKC,0.00,VWS V14.01,2013-11-12 11:06:00,
2013-11-12 05:11:00,13.6,9.4,30.77,SW,234,0.0,3.0,83,0.00,,SKC,0.00,VWS V14.01,2013-11-12 11:11:00,
2013-11-12 05:16:00,13.6,9.1,30.77,SW,234,0.0,3.0,82,0.00,,SKC,0.00,VWS V14.01,2013-11-12 11:16:00,
2013-11-12 05:21:00,13.5,9.0,30.77,SW,234,1.0,3.0,82,0.00,,SKC,0.00,VWS V14.01,2013-11-12 11:21:00,
2013-11-12 05:26:00,13.5,9.0,30.77,SW,234,0.0,3.0,82,0.00,,SKC,0.00,VWS V14.01,2013-11-12 11:26:00,
2013-11-12 05:31:00,13.4,9.2,30.78,SW,234,0.0,0.0,83,0.00,,SKC,0.00,VWS V14.01,2013-11-12 11:31:00,
2013-11-12 05:36:00,13.2,9.0,30.78,SW,235,0.0,1.0,83,0.00,,SKC,0.00,VWS V14.01,2013-11-12 11:36:00,
2013-11-12 05:41:00,13.2,9.0,30.78,SW,234,0.0,1.0,83,0.00,,SKC,0.00,VWS V14.01,2013-11-12 11:41:00,
2013-11-12 05:46:00,13.1,8.9,30.78,SW,235,0.0,3.0,83,0.00,,SKC,0.00,VWS V14.01,2013-11-12 11:46:00,
2013-11-12 05:51:00,13.1,8.9,30.78,SW,235,0.0,3.0,83,0.00,,SKC,0.00,VWS V14.01,2013-11-12 11:51:00,
2013-11-12 05:56:00,13.1,8.6,30.78,SW,235,0.0,3.0,82,0.00,,SKC,0.00,VWS V14.01,2013-11-12 11:56:00,
2013-11-12 06:01:00,13.1,8.6,30.78,SW,234,0.0,2.0,82,0.00,,SKC,0.00,VWS V14.01,2013-11-12 12:01:00,
2013-11-12 06:06:00,12.9,8.4,30.78,SW,230,0.0,2.0,82,0.00,,SKC,0.00,VWS V14.01,2013-11-12 12:06:00,
2013-11-12 06:11:00,12.8,8.4,30.78,WSW,237,0.0,3.0,82,0.00,,SKC,0.00,VWS V14.01,2013-11-12 12:11:00,
2013-11-12 06:16:00,12.6,8.2,30.78,WSW,240,0.0,4.0,82,0.00,,SKC,0.00,VWS V14.01,2013-11-12 12:16:00,
2013-11-12 06:21:00,12.5,8.1,30.78,WSW,241,1.0,4.0,82,0.00,,SKC,0.00,VWS V14.01,2013-11-12 12:21:00,
2013-11-12 06:26:00,12.4,8.0,30.78,WSW,241,0.0,4.0,82,0.00,,SKC,0.00,VWS V14.01,2013-11-12 12:26:00,
2013-11-12 06:31:00,12.3,7.9,30.77,West,273,0.0,4.0,82,0.00,,SKC,0.00,VWS V14.01,2013-11-12 12:31:00,
2013-11-12 06:36:00,12.3,7.9,30.78,WSW,238,0.0,4.0,82,0.00,,SKC,0.00,VWS V14.01,2013-11-12 12:36:00,
2013-11-12 06:41:00,12.2,7.8,30.78,WSW,240,0.0,4.0,82,0.00,,SKC,0.00,VWS V14.01,2013-11-12 12:41:00,
2013-11-12 06:46:00,12.2,7.8,30.78,WSW,248,2.0,4.0,82,0.00,,SKC,0.00,VWS V14.01,2013-11-12 12:46:00,
2013-11-12 06:51:00,12.2,7.8,30.78,SW,231,0.0,4.0,82,0.00,,SKC,0.00,VWS V14.01,2013-11-12 12:51:00,
2013-11-12 06:56:00,12.3,7.9,30.78,SW,221,0.0,4.0,82,0.00,,SKC,0.00,VWS V14.01,2013-11-12 12:56:00,
2013-11-12 07:01:00,12.3,7.9,30.77,NW,323,0.0,5.0,82,0.00,,SKC,0.00,VWS V14.01,2013-11-12 13:01:00,
2013-11-12 07:06:00,12.4,8.2,30.77,WSW,254,1.0,5.0,83,0.00,,SKC,0.00,VWS V14.01,2013-11-12 13:06:00,
2013-11-12 07:11:00,12.4,8.0,30.77,SW,236,0.0,5.0,82,0.00,,SKC,0.00,VWS V14.01,2013-11-12 13:11:00,
2013-11-12 07:16:00,12.4,8.0,30.77,WSW,253,0.0,5.0,82,0.00,,SKC,0.00,VWS V14.01,2013-11-12 13:16:00,
2013-11-12 07:21:00,12.5,8.1,30.77,West,269,0.0,5.0,82,0.00,,SKC,0.00,VWS V14.01,2013-11-12 13:21:00,
2013-11-12 07:26:00,12.6,8.2,30.77,West,265,0.0,5.0,82,0.00,,SKC,0.00,VWS V14.01,2013-11-12 13:26:00,
2013-11-12 07:31:00,12.7,8.3,30.77,West,267,0.0,2.0,82,0.00,,SKC,0.00,VWS V14.01,2013-11-12 13:31:00,
2013-11-12 07:36:00,12.7,8.3,30.77,West,267,0.0,3.0,82,0.00,,SKC,0.00,VWS V14.01,2013-11-12 13:36:00,
2013-11-12 07:41:00,12.8,8.1,30.77,West,278,0.0,3.0,81,0.00,,SKC,0.00,VWS V14.01,2013-11-12 13:41:00,
2013-11-12 07:46:00,12.9,8.2,30.77,WSW,251,2.0,4.0,81,0.00,,SKC,0.00,VWS V14.01,2013-11-12 13:46:00,
2013-11-12 07:51:00,13.0,8.3,30.77,WSW,247,0.0,4.0,81,0.00,,SKC,0.00,VWS V14.01,2013-11-12 13:51:00,
2013-11-12 07:56:00,13.1,8.4,30.77,SW,226,0.0,4.0,81,0.00,,SKC,0.00,VWS V14.01,2013-11-12 13:56:00,
2013-11-12 08:01:00,13.3,8.6,30.77,West,263,2.0,3.0,81,0.00,,SKC,0.00,VWS V14.01,2013-11-12 14:01:00,
2013-11-12 08:06:00,13.4,8.4,30.78,WSW,244,3.0,4.0,80,0.00,,SKC,0.00,VWS V14.01,2013-11-12 14:06:00,
2013-11-12 08:11:00,13.5,8.5,30.78,West,281,1.0,4.0,80,0.00,,SKC,0.00,VWS V14.01,2013-11-12 14:11:00,
2013-11-12 08:16:00,13.7,8.7,30.77,WSW,242,3.0,6.0,80,0.00,,SKC,0.00,VWS V14.01,2013-11-12 14:16:00,
2013-11-12 08:21:00,13.8,8.8,30.78,WSW,252,0.0,6.0,80,0.00,,SKC,0.00,VWS V14.01,2013-11-12 14:21:00,
2013-11-12 08:26:00,14.0,9.0,30.78,WSW,242,1.0,6.0,80,0.00,,SKC,0.00,VWS V14.01,2013-11-12 14:26:00,
2013-11-12 08:31:00,14.1,8.8,30.78,WSW,244,0.0,0.0,79,0.00,,SKC,0.00,VWS V14.01,2013-11-12 14:31:00,
2013-11-12 08:36:00,14.3,9.0,30.78,West,271,2.0,4.0,79,0.00,,SKC,0.00,VWS V14.01,2013-11-12 14:36:00,
2013-11-12 08:41:00,14.5,9.2,30.78,West,269,0.0,7.0,79,0.00,,SKC,0.00,VWS V14.01,2013-11-12 14:41:00,
2013-11-12 08:46:00,14.7,9.4,30.78,West,266,1.0,7.0,79,0.00,,SKC,0.00,VWS V14.01,2013-11-12 14:46:00,
2013-11-12 08:51:00,14.9,9.3,30.78,WSW,254,0.0,7.0,78,0.00,,SKC,0.00,VWS V14.01,2013-11-12 14:51:00,
2013-11-12 08:56:00,15.0,9.4,30.78,WNW,300,0.0,7.0,78,0.00,,SKC,0.00,VWS V14.01,2013-11-12 14:56:00,
2013-11-12 09:01:00,15.3,9.4,30.77,SW,222,1.0,4.0,77,0.00,,SKC,0.00,VWS V14.01,2013-11-12 15:01:00,
2013-11-12 09:06:00,15.5,9.6,30.78,NW,312,1.0,5.0,77,0.00,,SKC,0.00,VWS V14.01,2013-11-12 15:06:00,
2013-11-12 09:11:00,15.9,9.7,30.77,NW,324,2.0,7.0,76,0.00,,SKC,0.00,VWS V14.01,2013-11-12 15:11:00,
2013-11-12 09:16:00,16.2,10.0,30.77,West,273,2.0,7.0,76,0.00,,SKC,0.00,VWS V14.01,2013-11-12 15:16:00,
2013-11-12 09:21:00,16.6,10.1,30.77,West,263,2.0,7.0,75,0.00,,SKC,0.00,VWS V14.01,2013-11-12 15:21:00,
2013-11-12 09:26:00,16.8,10.3,30.77,WNW,292,1.0,7.0,75,0.00,,SKC,0.00,VWS V14.01,2013-11-12 15:26:00,
2013-11-12 09:31:00,17.0,10.2,30.77,West,279,0.0,7.0,74,0.00,,SKC,0.00,VWS V14.01,2013-11-12 15:31:00,
2013-11-12 09:36:00,17.3,10.8,30.77,SW,226,0.0,8.0,75,0.00,,SKC,0.00,VWS V14.01,2013-11-12 15:36:00,
2013-11-12 09:41:00,17.7,10.8,30.77,WSW,252,4.0,8.0,74,0.00,,SKC,0.00,VWS V14.01,2013-11-12 15:41:00,
2013-11-12 09:46:00,17.8,10.3,30.76,West,259,5.0,8.0,72,0.00,,SKC,0.00,VWS V14.01,2013-11-12 15:46:00,
2013-11-12 09:51:00,18.0,10.8,30.77,WNW,302,2.0,8.0,73,0.00,,SKC,0.00,VWS V14.01,2013-11-12 15:51:00,
2013-11-12 09:56:00,18.4,10.9,30.76,West,281,4.0,8.0,72,0.00,,SKC,0.00,VWS V14.01,2013-11-12 15:56:00,
2013-11-12 10:01:00,18.4,10.6,30.77,SSW,205,1.0,8.0,71,0.00,,SKC,0.00,VWS V14.01,2013-11-12 16:01:00,
2013-11-12 10:06:00,18.9,11.4,30.76,SSW,197,2.0,8.0,72,0.00,,SKC,0.00,VWS V14.01,2013-11-12 16:06:00,
2013-11-12 10:11:00,19.2,11.0,30.77,WNW,301,1.0,8.0,70,0.00,,SKC,0.00,VWS V14.01,2013-11-12 16:11:00,
2013-11-12 10:16:00,19.4,11.2,30.76,WNW,297,0.0,8.0,70,0.00,,SKC,0.00,VWS V14.01,2013-11-12 16:16:00,
2013-11-12 10:21:00,19.8,11.0,30.76,SE,135,2.0,8.0,68,0.00,,SKC,0.00,VWS V14.01,2013-11-12 16:21:00,
2013-11-12 10:26:00,20.2,11.0,30.76,West,273,0.0,8.0,67,0.00,,SKC,0.00,VWS V14.01,2013-11-12 16:26:00,
2013-11-12 10:31:00,20.5,11.3,30.76,WNW,286,0.0,0.0,67,0.00,,SKC,0.00,VWS V14.01,2013-11-12 16:31:00,
2013-11-12 10:36:00,21.2,11.6,30.76,South,169,0.0,5.0,66,0.00,,SKC,0.00,VWS V14.01,2013-11-12 16:36:00,
2013-11-12 10:41:00,21.5,10.5,30.76,NW,317,5.0,8.0,62,0.00,,SKC,0.00,VWS V14.01,2013-11-12 16:41:00,
2013-11-12 10:46:00,21.5,10.5,30.76,South,178,0.0,8.0,62,0.00,,SKC,0.00,VWS V14.01,2013-11-12 16:46:00,
2013-11-12 10:51:00,21.7,10.7,30.75,ESE,122,0.0,8.0,62,0.00,,SKC,0.00,VWS V14.01,2013-11-12 16:51:00,
2013-11-12 10:56:00,22.0,10.6,30.76,West,261,0.0,8.0,61,0.00,,SKC,0.00,VWS V14.01,2013-11-12 16:56:00,
2013-11-12 11:01:00,22.0,10.2,30.75,West,260,0.0,4.0,60,0.00,,SKC,0.00,VWS V14.01,2013-11-12 17:01:00,
2013-11-12 11:06:00,22.2,10.4,30.75,NNE,25,0.0,6.0,60,0.00,,SKC,0.00,VWS V14.01,2013-11-12 17:06:00,
2013-11-12 11:11:00,22.5,10.7,30.74,SE,135,4.0,6.0,60,0.00,,SKC,0.00,VWS V14.01,2013-11-12 17:11:00,
2013-11-12 11:16:00,23.1,11.3,30.74,West,269,0.0,6.0,60,0.00,,SKC,0.00,VWS V14.01,2013-11-12 17:16:00,
2013-11-12 11:21:00,23.5,10.5,30.74,SSW,204,2.0,6.0,57,0.00,,SKC,0.00,VWS V14.01,2013-11-12 17:21:00,
2013-11-12 11:26:00,23.6,10.2,30.74,WNW,296,0.0,7.0,56,0.00,,SKC,0.00,VWS V14.01,2013-11-12 17:26:00,
2013-11-12 11:31:00,23.8,10.4,30.74,NE,36,1.0,8.0,56,0.00,,SKC,0.00,VWS V14.01,2013-11-12 17:31:00,
2013-11-12 11:36:00,24.1,9.9,30.74,WNW,298,2.0,8.0,54,0.00,,SKC,0.00,VWS V14.01,2013-11-12 17:36:00,
2013-11-12 11:41:00,24.3,10.5,30.74,WSW,254,2.0,8.0,55,0.00,,SKC,0.00,VWS V14.01,2013-11-12 17:41:00,
2013-11-12 11:46:00,24.4,9.7,30.74,West,271,0.0,8.0,53,0.00,,SKC,0.00,VWS V14.01,2013-11-12 17:46:00,
2013-11-12 11:51:00,24.4,9.3,30.74,West,279,4.0,8.0,52,0.00,,SKC,0.00,VWS V14.01,2013-11-12 17:51:00,
2013-11-12 11:56:00,24.5,9.4,30.73,South,178,0.0,8.0,52,0.00,,SKC,0.00,VWS V14.01,2013-11-12 17:56:00,
2013-11-12 12:01:00,24.6,9.5,30.73,SW,217,2.0,4.0,52,0.00,,SKC,0.00,VWS V14.01,2013-11-12 18:01:00,
2013-11-12 12:06:00,24.5,9.4,30.72,West,259,0.0,11.0,52,0.00,,SKC,0.00,VWS V14.01,2013-11-12 18:06:00,
2013-11-12 12:11:00,24.4,9.3,30.72,West,269,3.0,12.0,52,0.00,,SKC,0.00,VWS V14.01,2013-11-12 18:11:00,
2013-11-12 12:16:00,24.4,8.9,30.71,SW,226,3.0,12.0,51,0.00,,SKC,0.00,VWS V14.01,2013-11-12 18:16:00,
2013-11-12 12:21:00,24.7,9.6,30.71,West,265,2.0,12.0,52,0.00,,SKC,0.00,VWS V14.01,2013-11-12 18:21:00,
2013-11-12 12:26:00,25.0,9.0,30.70,WNW,294,1.0,12.0,50,0.00,,SKC,0.00,VWS V14.01,2013-11-12 18:26:00,
2013-11-12 12:31:00,25.4,9.4,30.71,WNW,283,4.0,6.0,50,0.00,,SKC,0.00,VWS V14.01,2013-11-12 18:31:00,
2013-11-12 12:36:00,25.5,9.0,30.70,WNW,296,4.0,7.0,49,0.00,,SKC,0.00,VWS V14.01,2013-11-12 18:36:00,
2013-11-12 12:41:00,25.8,9.3,30.70,East,101,2.0,7.0,49,0.00,,SKC,0.00,VWS V14.01,2013-11-12 18:41:00,
2013-11-12 12:46:00,26.1,9.6,30.70,NW,309,1.0,7.0,49,0.00,,SKC,0.00,VWS V14.01,2013-11-12 18:46:00,
2013-11-12 12:51:00,26.1,9.1,30.69,SE,138,2.0,7.0,48,0.00,,SKC,0.00,VWS V14.01,2013-11-12 18:51:00,
2013-11-12 12:56:00,26.2,8.7,30.69,South,185,2.0,7.0,47,0.00,,SKC,0.00,VWS V14.01,2013-11-12 18:56:00,
2013-11-12 13:01:00,26.4,9.4,30.69,SSW,211,5.0,8.0,48,0.00,,SKC,0.00,VWS V14.01,2013-11-12 19:01:00,
2013-11-12 13:06:00,26.3,8.8,30.69,NW,311,0.0,8.0,47,0.00,,SKC,0.00,VWS V14.01,2013-11-12 19:06:00,
2013-11-12 13:11:00,26.7,9.7,30.68,WSW,246,8.0,8.0,48,0.00,,SKC,0.00,VWS V14.01,2013-11-12 19:11:00,
2013-11-12 13:16:00,26.6,9.1,30.68,WSW,248,2.0,9.0,47,0.00,,SKC,0.00,VWS V14.01,2013-11-12 19:16:00,
2013-11-12 13:21:00,26.7,8.2,30.68,WNW,286,2.0,9.0,45,0.00,,SKC,0.00,VWS V14.01,2013-11-12 19:21:00,
2013-11-12 13:26:00,26.8,8.3,30.67,WSW,238,0.0,9.0,45,0.00,,SKC,0.00,VWS V14.01,2013-11-12 19:26:00,
2013-11-12 13:31:00,26.9,8.4,30.67,NW,317,0.0,6.0,45,0.00,,SKC,0.00,VWS V14.01,2013-11-12 19:31:00,
2013-11-12 13:36:00,27.1,9.1,30.67,WSW,244,3.0,8.0,46,0.00,,SKC,0.00,VWS V14.01,2013-11-12 19:36:00,
2013-11-12 13:41:00,27.1,9.1,30.67,WSW,248,4.0,9.0,46,0.00,,SKC,0.00,VWS V14.01,2013-11-12 19:41:00,
2013-11-12 13:46:00,27.1,8.6,30.66,SE,125,5.0,9.0,45,0.00,,SKC,0.00,VWS V14.01,2013-11-12 19:46:00,
2013-11-12 13:51:00,27.2,8.7,30.65,ESE,108,5.0,9.0,45,0.00,,SKC,0.00,VWS V14.01,2013-11-12 19:51:00,
2013-11-12 13:56:00,27.3,9.3,30.65,SW,222,0.0,9.0,46,0.00,,SKC,0.00,VWS V14.01,2013-11-12 19:56:00,
2013-11-12 14:01:00,27.5,9.4,30.65,West,269,0.0,2.0,46,0.00,,SKC,0.00,VWS V14.01,2013-11-12 20:01:00,
2013-11-12 14:06:00,27.8,9.2,30.65,WSW,240,1.0,7.0,45,0.00,,SKC,0.00,VWS V14.01,2013-11-12 20:06:00,
2013-11-12 14:11:00,27.8,9.7,30.65,NNW,333,0.0,7.0,46,0.00,,SKC,0.00,VWS V14.01,2013-11-12 20:11:00,
2013-11-12 14:16:00,27.8,9.2,30.65,West,272,0.0,7.0,45,0.00,,SKC,0.00,VWS V14.01,2013-11-12 20:16:00,
2013-11-12 14:21:00,27.8,9.2,30.64,WSW,248,2.0,7.0,45,0.00,,SKC,0.00,VWS V14.01,2013-11-12 20:21:00,
2013-11-12 14:26:00,27.8,9.2,30.64,NW,305,0.0,7.0,45,0.00,,SKC,0.00,VWS V14.01,2013-11-12 20:26:00,
2013-11-12 14:31:00,27.8,8.7,30.64,South,170,0.0,7.0,44,0.00,,SKC,0.00,VWS V14.01,2013-11-12 20:31:00,
2013-11-12 14:36:00,27.8,9.2,30.64,West,271,1.0,7.0,45,0.00,,SKC,0.00,VWS V14.01,2013-11-12 20:36:00,
2013-11-12 14:41:00,27.9,9.3,30.65,SE,134,6.0,7.0,45,0.00,,SKC,0.00,VWS V14.01,2013-11-12 20:41:00,
2013-11-12 14:46:00,27.9,9.8,30.64,North,11,0.0,7.0,46,0.00,,SKC,0.00,VWS V14.01,2013-11-12 20:46:00,
2013-11-12 14:51:00,27.9,9.8,30.64,ESE,106,0.0,7.0,46,0.00,,SKC,0.00,VWS V14.01,2013-11-12 20:51:00,
2013-11-12 14:56:00,27.8,9.7,30.64,ESE,117,0.0,7.0,46,0.00,,SKC,0.00,VWS V14.01,2013-11-12 20:56:00,
2013-11-12 15:01:00,27.7,9.6,30.64,SW,232,4.0,7.0,46,0.00,,SKC,0.00,VWS V14.01,2013-11-12 21:01:00,
2013-11-12 15:06:00,27.8,10.2,30.64,WSW,237,2.0,7.0,47,0.00,,SKC,0.00,VWS V14.01,2013-11-12 21:06:00,
2013-11-12 15:11:00,27.8,10.2,30.64,East,101,0.0,7.0,47,0.00,,SKC,0.00,VWS V14.01,2013-11-12 21:11:00,
2013-11-12 15:16:00,27.8,10.2,30.63,SE,130,1.0,7.0,47,0.00,,SKC,0.00,VWS V14.01,2013-11-12 21:16:00,
2013-11-12 15:21:00,27.7,10.1,30.63,NNW,339,1.0,7.0,47,0.00,,SKC,0.00,VWS V14.01,2013-11-12 21:21:00,
2013-11-12 15:26:00,27.7,10.1,30.63,WNW,290,0.0,7.0,47,0.00,,SKC,0.00,VWS V14.01,2013-11-12 21:26:00,
2013-11-12 15:31:00,27.7,10.1,30.63,WSW,250,1.0,6.0,47,0.00,,SKC,0.00,VWS V14.01,2013-11-12 21:31:00,
2013-11-12 15:36:00,27.7,9.6,30.63,ESE,113,0.0,6.0,46,0.00,,SKC,0.00,VWS V14.01,2013-11-12 21:36:00,
2013-11-12 15:41:00,27.6,10.0,30.64,NNW,340,0.0,6.0,47,0.00,,SKC,0.00,VWS V14.01,2013-11-12 21:41:00,
2013-11-12 15:46:00,27.6,9.5,30.64,SSE,163,0.0,6.0,46,0.00,,SKC,0.00,VWS V14.01,2013-11-12 21:46:00,
2013-11-12 15:51:00,27.6,10.0,30.63,WNW,284,0.0,6.0,47,0.00,,SKC,0.00,VWS V14.01,2013-11-12 21:51:00,
2013-11-12 15:56:00,27.5,9.4,30.63,SSW,196,1.0,6.0,46,0.00,,SKC,0.00,VWS V14.01,2013-11-12 21:56:00,
2013-11-12 16:01:00,27.4,9.8,30.63,SSE,150,1.0,2.0,47,0.00,,SKC,0.00,VWS V14.01,2013-11-12 22:01:00,
2013-11-12 16:06:00,27.3,9.7,30.63,SSE,168,0.0,2.0,47,0.00,,SKC,0.00,VWS V14.01,2013-11-12 22:06:00,
2013-11-12 16:11:00,27.2,9.6,30.63,WNW,290,4.0,4.0,47,0.00,,SKC,0.00,VWS V14.01,2013-11-12 22:11:00,
2013-11-12 16:16:00,27.1,10.0,30.63,West,273,0.0,4.0,48,0.00,,SKC,0.00,VWS V14.01,2013-11-12 22:16:00,
2013-11-12 16:21:00,27.0,9.9,30.63,West,277,0.0,4.0,48,0.00,,SKC,0.00,VWS V14.01,2013-11-12 22:21:00,
2013-11-12 16:26:00,27.0,10.4,30.63,WSW,248,1.0,4.0,49,0.00,,SKC,0.00,VWS V14.01,2013-11-12 22:26:00,
2013-11-12 16:31:00,26.9,10.8,30.62,South,181,0.0,1.0,50,0.00,,SKC,0.00,VWS V14.01,2013-11-12 22:31:00,
2013-11-12 16:36:00,26.7,10.6,30.62,SSE,149,0.0,5.0,50,0.00,,SKC,0.00,VWS V14.01,2013-11-12 22:36:00,
2013-11-12 16:41:00,26.5,10.8,30.62,ESE,111,0.0,5.0,51,0.00,,SKC,0.00,VWS V14.01,2013-11-12 22:41:00,
2013-11-12 16:46:00,26.3,10.6,30.62,NE,49,0.0,5.0,51,0.00,,SKC,0.00,VWS V14.01,2013-11-12 22:46:00,
2013-11-12 16:51:00,26.2,10.6,30.61,NE,49,0.0,5.0,51,0.00,,SKC,0.00,VWS V14.01,2013-11-12 22:51:00,
2013-11-12 16:56:00,26.0,10.8,30.61,NE,49,0.0,5.0,52,0.00,,SKC,0.00,VWS V14.01,2013-11-12 22:56:00,
2013-11-12 17:01:00,25.8,11.0,30.60,SE,139,0.0,2.0,53,0.00,,SKC,0.00,VWS V14.01,2013-11-12 23:01:00,
2013-11-12 17:06:00,25.7,11.4,30.60,WNW,284,0.0,2.0,54,0.00,,SKC,0.00,VWS V14.01,2013-11-12 23:06:00,
2013-11-12 17:11:00,25.5,11.2,30.60,West,264,1.0,2.0,54,0.00,,SKC,0.00,VWS V14.01,2013-11-12 23:11:00,
2013-11-12 17:16:00,25.4,11.5,30.60,South,185,0.0,2.0,55,0.00,,SKC,0.00,VWS V14.01,2013-11-12 23:16:00,
2013-11-12 17:21:00,25.3,11.4,30.60,South,182,0.0,2.0,55,0.00,,SKC,0.00,VWS V14.01,2013-11-12 23:21:00,
2013-11-12 17:26:00,25.0,11.5,30.59,South,182,0.0,2.0,56,0.00,,SKC,0.00,VWS V14.01,2013-11-12 23:26:00,
2013-11-12 17:31:00,24.9,11.4,30.59,South,182,0.0,1.0,56,0.00,,SKC,0.00,VWS V14.01,2013-11-12 23:31:00,
2013-11-12 17:36:00,24.7,11.6,30.59,SSE,165,0.0,3.0,57,0.00,,SKC,0.00,VWS V14.01,2013-11-12 23:36:00,
2013-11-12 17:41:00,24.5,11.9,30.59,SSE,165,0.0,3.0,58,0.00,,SKC,0.00,VWS V14.01,2013-11-12 23:41:00,
2013-11-12 17:46:00,24.4,11.8,30.60,SSE,165,0.0,3.0,58,0.00,,SKC,0.00,VWS V14.01,2013-11-12 23:46:00,
2013-11-12 17:51:00,24.3,12.1,30.60,South,182,1.0,3.0,59,0.00,,SKC,0.00,VWS V14.01,2013-11-12 23:51:00,
2013-11-12 17:56:00,24.1,11.9,30.60,South,182,0.0,3.0,59,0.00,,SKC,0.00,VWS V14.01,2013-11-12 23:56:00,
2013-11-12 18:01:00,23.9,11.7,30.60,South,182,0.0,0.0,59,0.00,,SKC,0.00,VWS V14.01,2013-11-13 00:01:00,
2013-11-12 18:06:00,23.6,11.8,30.60,South,182,0.0,0.0,60,0.00,,SKC,0.00,VWS V14.01,2013-11-13 00:06:00,
2013-11-12 18:11:00,23.3,11.5,30.60,South,182,0.0,0.0,60,0.00,,SKC,0.00,VWS V14.01,2013-11-13 00:11:00,
2013-11-12 18:16:00,23.0,11.6,30.59,South,182,0.0,0.0,61,0.00,,SKC,0.00,VWS V14.01,2013-11-13 00:16:00,
2013-11-12 18:21:00,22.7,11.6,30.59,South,182,0.0,1.0,62,0.00,,SKC,0.00,VWS V14.01,2013-11-13 00:21:00,
2013-11-12 18:26:00,22.5,11.8,30.58,South,182,0.0,1.0,63,0.00,,SKC,0.00,VWS V14.01,2013-11-13 00:26:00,
2013-11-12 18:31:00,22.3,12.0,30.58,South,180,0.0,1.0,64,0.00,,SKC,0.00,VWS V14.01,2013-11-13 00:31:00,
2013-11-12 18:36:00,22.3,12.3,30.57,ESE,117,0.0,1.0,65,0.00,,SKC,0.00,VWS V14.01,2013-11-13 00:36:00,
2013-11-12 18:40:00,22.4,12.4,30.57,ESE,117,0.0,1.0,65,0.00,,SKC,0.00,VWS V14.01,2013-11-13 00:40:00,
2013-11-12 18:45:00,22.6,12.6,30.57,ESE,117,0.0,2.0,65,0.00,,SKC,0.00,VWS V14.01,2013-11-13 00:45:00,
2013-11-12 18:50:00,22.7,12.7,30.56,ESE,117,0.0,2.0,65,0.00,,SKC,0.00,VWS V14.01,2013-11-13 00:50:00,
2013-11-12 18:55:00,22.9,12.9,30.56,ESE,117,0.0,2.0,65,0.00,,SKC,0.00,VWS V14.01,2013-11-13 00:55:00,
2013-11-12 19:00:00,23.0,13.0,30.56,ESE,117,0.0,1.0,65,0.00,,SKC,0.00,VWS V14.01,2013-11-13 01:00:00,
2013-11-12 19:05:00,23.0,13.0,30.55,ESE,117,0.0,1.0,65,0.00,,SKC,0.00,VWS V14.01,2013-11-13 01:05:00,
2013-11-12 19:10:00,23.1,13.4,30.55,East,92,0.0,2.0,66,0.00,,SKC,0.00,VWS V14.01,2013-11-13 01:10:00,
2013-11-12 19:15:00,23.1,13.4,30.55,SSW,206,0.0,4.0,66,0.00,,SKC,0.00,VWS V14.01,2013-11-13 01:15:00,
2013-11-12 19:20:00,23.1,13.4,30.54,SE,129,0.0,4.0,66,0.00,,SKC,0.00,VWS V14.01,2013-11-13 01:20:00,
2013-11-12 19:25:00,23.2,13.2,30.54,SE,124,0.0,4.0,65,0.00,,SKC,0.00,VWS V14.01,2013-11-13 01:25:00,
2013-11-12 19:30:00,23.3,13.3,30.54,SSE,159,0.0,4.0,65,0.00,,SKC,0.00,VWS V14.01,2013-11-13 01:30:00,
2013-11-12 19:35:00,23.4,13.4,30.54,SSW,200,0.0,4.0,65,0.00,,SKC,0.00,VWS V14.01,2013-11-13 01:35:00,
2013-11-12 19:40:00,23.4,13.4,30.53,SSW,198,0.0,4.0,65,0.00,,SKC,0.00,VWS V14.01,2013-11-13 01:40:00,
2013-11-12 19:45:00,23.5,13.1,30.54,ENE,76,0.0,4.0,64,0.00,,SKC,0.00,VWS V14.01,2013-11-13 01:45:00,
2013-11-12 19:50:00,23.5,13.1,30.53,ESE,120,0.0,4.0,64,0.00,,SKC,0.00,VWS V14.01,2013-11-13 01:50:00,
2013-11-12 19:55:00,23.4,13.0,30.53,East,82,0.0,4.0,64,0.00,,SKC,0.00,VWS V14.01,2013-11-13 01:55:00,
2013-11-12 20:00:00,23.3,13.3,30.52,South,185,1.0,2.0,65,0.00,,SKC,0.00,VWS V14.01,2013-11-13 02:00:00,
2013-11-12 20:05:00,23.3,13.3,30.52,SE,134,0.0,2.0,65,0.00,,SKC,0.00,VWS V14.01,2013-11-13 02:05:00,
2013-11-12 20:10:00,23.2,13.2,30.52,ESE,123,0.0,4.0,65,0.00,,SKC,0.00,VWS V14.01,2013-11-13 02:10:00,
2013-11-12 20:15:00,23.2,13.5,30.52,SE,125,0.0,6.0,66,0.00,,SKC,0.00,VWS V14.01,2013-11-13 02:15:00,
2013-11-12 20:20:00,23.1,13.4,30.52,ESE,121,0.0,6.0,66,0.00,,SKC,0.00,VWS V14.01,2013-11-13 02:20:00,
2013-11-12 20:25:00,23.1,13.4,30.51,ESE,111,0.0,6.0,66,0.00,,SKC,0.00,VWS V14.01,2013-11-13 02:25:00,
2013-11-12 20:30:00,23.0,13.7,30.51,SE,132,0.0,5.0,67,0.00,,SKC,0.00,VWS V14.01,2013-11-13 02:30:00,
2013-11-12 20:35:00,23.0,13.7,30.51,WNW,302,0.0,8.0,67,0.00,,SKC,0.00,VWS V14.01,2013-11-13 02:35:00,
2013-11-12 20:40:00,23.0,13.7,30.52,NE,34,0.0,8.0,67,0.00,,SKC,0.00,VWS V14.01,2013-11-13 02:40:00,
2013-11-12 20:45:00,22.9,13.6,30.51,East,96,0.0,8.0,67,0.00,,SKC,0.00,VWS V14.01,2013-11-13 02:45:00,
2013-11-12 20:50:00,22.8,13.5,30.51,NE,44,1.0,8.0,67,0.00,,SKC,0.00,VWS V14.01,2013-11-13 02:50:00,
2013-11-12 20:55:00,22.8,13.5,30.51,East,89,0.0,8.0,67,0.00,,SKC,0.00,VWS V14.01,2013-11-13 02:55:00,
2013-11-12 21:00:00,22.7,13.7,30.52,East,85,0.0,2.0,68,0.00,,SKC,0.00,VWS V14.01,2013-11-13 03:00:00,
2013-11-12 21:05:00,22.7,13.7,30.51,SE,127,0.0,6.0,68,0.00,,SKC,0.00,VWS V14.01,2013-11-13 03:05:00,
2013-11-12 21:10:00,22.7,13.7,30.51,SE,138,0.0,6.0,68,0.00,,SKC,0.00,VWS V14.01,2013-11-13 03:10:00,
2013-11-12 21:15:00,22.6,14.0,30.51,ESE,122,0.0,6.0,69,0.00,,SKC,0.00,VWS V14.01,2013-11-13 03:15:00,
2013-11-12 21:20:00,22.6,14.0,30.51,SSW,205,0.0,6.0,69,0.00,,SKC,0.00,VWS V14.01,2013-11-13 03:20:00,
2013-11-12 21:25:00,22.4,13.8,30.51,SE,135,0.0,6.0,69,0.00,,SKC,0.00,VWS V14.01,2013-11-13 03:25:00,
2013-11-12 21:30:00,22.3,13.7,30.50,South,171,0.0,1.0,69,0.00,,SKC,0.00,VWS V14.01,2013-11-13 03:30:00,
2013-11-12 21:35:00,22.2,13.9,30.50,SSE,165,0.0,1.0,70,0.00,,SKC,0.00,VWS V14.01,2013-11-13 03:35:00,
2013-11-12 21:40:00,22.2,13.9,30.50,West,279,0.0,4.0,70,0.00,,SKC,0.00,VWS V14.01,2013-11-13 03:40:00,
2013-11-12 21:45:00,22.2,14.2,30.50,West,279,0.0,4.0,71,0.00,,SKC,0.00,VWS V14.01,2013-11-13 03:45:00,
2013-11-12 21:50:00,22.1,14.1,30.49,SE,140,0.0,4.0,71,0.00,,SKC,0.00,VWS V14.01,2013-11-13 03:50:00,
2013-11-12 21:55:00,22.1,14.5,30.49,SSW,211,0.0,4.0,72,0.00,,SKC,0.00,VWS V14.01,2013-11-13 03:55:00,
2013-11-12 22:00:00,22.0,14.4,30.48,East,100,0.0,5.0,72,0.00,,SKC,0.00,VWS V14.01,2013-11-13 04:00:00,
2013-11-12 22:05:00,21.9,14.6,30.48,East,100,0.0,5.0,73,0.00,,SKC,0.00,VWS V14.01,2013-11-13 04:05:00,
2013-11-12 22:10:00,21.9,14.6,30.47,SSE,150,4.0,5.0,73,0.00,,SKC,0.00,VWS V14.01,2013-11-13 04:10:00,
2013-11-12 22:15:00,21.8,14.8,30.47,SE,134,0.0,5.0,74,0.00,,SKC,0.00,VWS V14.01,2013-11-13 04:15:00,
2013-11-12 22:20:00,21.8,14.8,30.47,SE,144,6.0,7.0,74,0.00,,SKC,0.00,VWS V14.01,2013-11-13 04:20:00,
2013-11-12 22:25:00,21.9,14.9,30.47,South,169,1.0,7.0,74,0.00,,SKC,0.00,VWS V14.01,2013-11-13 04:25:00,
2013-11-12 22:30:00,21.9,15.2,30.47,SE,136,1.0,2.0,75,0.00,,SKC,0.00,VWS V14.01,2013-11-13 04:30:00,
2013-11-12 22:35:00,22.0,15.3,30.47,SE,130,0.0,5.0,75,0.00,,SKC,0.00,VWS V14.01,2013-11-13 04:35:00,
2013-11-12 22:40:00,22.1,15.4,30.47,ESE,107,0.0,7.0,75,0.00,,SKC,0.00,VWS V14.01,2013-11-13 04:40:00,
2013-11-12 22:45:00,22.1,15.1,30.47,ESE,109,2.0,7.0,74,0.00,,SKC,0.00,VWS V14.01,2013-11-13 04:45:00,
2013-11-12 22:50:00,22.1,15.4,30.46,ESE,109,0.0,7.0,75,0.00,,SKC,0.00,VWS V14.01,2013-11-13 04:50:00,
2013-11-12 22:55:00,22.0,15.3,30.46,SE,126,4.0,7.0,75,0.00,,SKC,0.00,VWS V14.01,2013-11-13 04:55:00,
2013-11-12 23:00:00,22.0,15.3,30.46,SE,125,0.0,2.0,75,0.00,,SKC,0.00,VWS V14.01,2013-11-13 05:00:00,
2013-11-12 23:01:00,22.0,15.3,30.46,SE,125,0.0,2.0,75,0.00,,SKC,0.00,VWS V14.01,2013-11-13 05:01:00,
2013-11-12 23:02:00,22.0,15.3,30.46,SE,125,0.0,5.0,75,0.00,,SKC,0.00,VWS V14.01,2013-11-13 05:02:00,
2013-11-12 23:07:00,22.0,15.3,30.46,SE,138,0.0,5.0,75,0.00,,SKC,0.00,VWS V14.01,2013-11-13 05:07:00,
2013-11-12 23:12:00,21.9,15.2,30.45,ESE,118,0.0,5.0,75,0.00,,SKC,0.00,VWS V14.01,2013-11-13 05:12:00,
2013-11-12 23:17:00,21.8,15.4,30.45,SE,125,0.0,5.0,76,0.00,,SKC,0.00,VWS V14.01,2013-11-13 05:17:00,
2013-11-12 23:22:00,21.7,15.3,30.45,SE,125,0.0,5.0,76,0.00,,SKC,0.00,VWS V14.01,2013-11-13 05:22:00,
2013-11-12 23:26:00,21.5,15.1,30.45,SE,125,1.0,5.0,76,0.00,,SKC,0.00,VWS V14.01,2013-11-13 05:26:00,
2013-11-12 23:31:00,21.4,15.0,30.45,ESE,117,0.0,5.0,76,0.00,,SKC,0.00,VWS V14.01,2013-11-13 05:31:00,
2013-11-12 23:36:00,21.3,14.9,30.44,ESE,120,0.0,5.0,76,0.00,,SKC,0.00,VWS V14.01,2013-11-13 05:36:00,
2013-11-12 23:41:00,21.2,14.8,30.44,SE,136,0.0,5.0,76,0.00,,SKC,0.00,VWS V14.01,2013-11-13 05:41:00,
2013-11-12 23:46:00,21.1,15.0,30.43,ESE,118,0.0,5.0,77,0.00,,SKC,0.00,VWS V14.01,2013-11-13 05:46:00,
2013-11-12 23:51:00,21.1,15.0,30.44,ESE,117,2.0,5.0,77,0.00,,SKC,0.00,VWS V14.01,2013-11-13 05:51:00,
2013-11-12 23:56:00,21.1,15.0,30.43,SSE,167,0.0,5.0,77,0.00,,SKC,0.00,VWS V14.01,2013-11-13 05:56:00,